RH
18 14 13 23 72 98 99 97 90 72 70 64 81 80 92 53 47 76 89 61 57 64 56 73 93 100 100 92 86 95 87 79 77 69 55 71 92 98 99 98 97 94 68 94
8 8 8 9 14 22 84 60 71 47 31 74 84 56 37 54 78 81 58 42 38 43 68 97 100 100 100 99 100 100 89 82 77 47 46 47 59 78 85 91 98 89 69 90
5 5 6 6 7 9 13 20 18 22 27 47 29 34 57 54 40 46 39 27 48 61 81 92 86 98 78 81 87 85 97 74 59 50 44 44 46 59 52 63 75 72 56 54
5 5 6 6 6 7 7 10 10 13 19 23 25 34 42 38 31 36 40 46 56 56 63 61 50 57 88 100 75 62 66 76 78 57 49 39 33 36 42 44 54 82 34 49
5 5 6 6 8 8 8 7 7 8 10 15 17 20 25 25 24 23 29 41 45 38 38 38 33 41 43 49 67 75 71 73 61 54 43 37 45 51 43 43 38 56 44 48
5 5 6 6 8 9 10 9 8 7 7 7 10 12 15 16 24 27 32 38 33 32 32 30 30 30 32 31 31 35 38 44 52 53 62 60 56 56 54 54 53 52 53 49
6 5 5 5 6 8 9 10 11 10 9 8 7 8 10 12 14 18 24 27 26 28 26 24 24 22 23 28 31 28 27 30 30 26 26 32 34 34 34 35 33 32 34 32
7 6 4 4 5 6 8 11 12 13 12 12 10 9 8 8 11 14 15 17 20 22 22 22 20 23 18 18 20 24 22 23 26 22 22 20 18 18 20 20 20 20 20 18
11 6 6 4 4 5 6 8 10 14 14 14 13 13 12 11 10 8 8 9 12 12 12 13 14 13 16 13 11 13 11 11 14 17 18 15 14 12 13 13 13 14 13 12
17 14 8 6 4 4 5 6 7 10 13 14 15 16 15 14 13 13 13 12 11 10 10 9 8 8 7 7 7 8 8 8 8 8 8 9 9 10 10 8 7 7 8 10
7 16 12 9 7 4 4 5 6 7 8 11 12 14 16 16 16 16 16 16 14 14 13 13 12 12 12 11 11 10 9 9 8 8 8 9 8 8 8 10 10 11 11 12
3 10 21 16 11 6 4 4 5 5 6 7 9 12 13 16 17 18 18 20 20 18 18 16 15 14 13 13 12 12 12 11 11 10 10 10 10 10 10 10 10 9 9 9
4 4 9 26 17 12 8 7 7 7 5 6 6 7 10 13 16 18 20 20 20 20 21 19 18 15 13 12 11 11 11 11 11 10 10 10 10 9 9 8 9 9 9 9
7 4 4 9 20 20 16 12 8 7 7 7 5 5 5 8 10 14 18 20 20 21 21 20 18 16 14 12 12 12 14 15 16 15 13 11 9 9 8 9 9 9 10 10
8 7 5 3 8 13 21 19 17 15 13 12 11 7 5 5 6 8 9 14 18 20 21 21 22 22 21 16 14 12 12 14 17 20 19 18 16 12 9 9 11 16 18 17
6 7 8 6 4 4 8 19 22 26 28 19 17 18 12 6 5 5 7 7 8 16 17 18 21 22 21 22 24 20 18 15 16 20 22 21 21 20 15 12 15 20 21 18
7 7 7 8 7 8 6 4 6 14 24 31 32 30 27 22 11 6 5 6 6 7 11 13 11 14 19 22 23 23 26 27 23 19 22 23 22 21 20 20 21 21 19 19
13 11 11 8 8 8 8 8 6 6 5 6 12 31 40 40 39 26 12 7 6 6 7 9 11 11 11 12 17 22 25 25 29 32 26 23 24 23 22 22 23 24 24 25
20 15 13 11 7 6 6 6 10 11 10 8 6 7 16 28 39 43 43 35 18 12 8 8 8 10 11 9 10 18 24 28 28 26 30 32 28 27 26 24 25 28 29 30
44 22 17 14 10 8 7 8 12 13 15 12 9 9 8 9 11 25 39 41 45 40 26 14 11 11 8 8 8 13 19 25 29 31 30 30 34 33 29 29 28 28 32 34
56 43 26 20 16 12 8 8 13 14 14 16 16 14 13 11 9 8 12 25 39 37 37 47 29 32 29 13 9 10 14 15 24 31 34 35 36 37 38 35 33 33 34 36
68 59 51 37 26 19 16 15 20 22 19 16 14 15 17 15 13 11 8 9 9 16 35 43 40 76 70 45 19 13 15 15 18 28 38 46 47 40 39 42 43 39 39 40
77 66 52 48 46 38 21 26 26 26 24 21 18 17 18 19 18 17 11 10 11 12 10 12 46 64 67 71 46 22 16 18 26 51 34 32 44 59 68 50 43 48 49 45
94 84 71 61 46 39 44 45 37 34 32 31 29 28 24 16 18 15 11 12 12 10 12 8 15 38 60 65 80 40 27 28 27 30 44 48 47 53 76 89 87 54 53 57
95 95 80 68 63 56 59 61 50 43 42 42 44 42 34 26 23 17 12 15 17 12 10 9 9 57 99 92 79 93 45 42 51 48 61 69 71 77 76 90 93 82 64 60
96 86 77 77 84 89 77 68 62 55 54 51 51 48 34 30 26 23 16 18 15 13 9 7 7 21 62 83 92 95 93 47 35 37 38 48 58 69 90 98 98 88 70 71
83 67 77 81 89 94 91 88 76 68 66 63 58 56 54 42 34 32 25 16 14 12 10 7 8 11 30 98 100 89 98 98 78 61 58 57 61 76 88 100 99 98 77 71
Wind_Speed
67 65 66 56 48 42 36 33 28 26 23 17 14 11 17 30 24 23 20 23 25 22 21 17 17 20 18 14 10 14 16 18 21 17 18 21 25 23 22 21 22 21 30 29
65 67 68 68 59 48 38 33 24 22 21 22 25 30 29 26 23 23 24 24 23 20 16 21 24 20 16 16 19 20 18 18 21 18 18 20 21 21 21 21 24 20 23 33
58 62 65 68 67 62 53 41 35 29 29 31 30 32 29 27 26 27 27 24 22 20 24 26 24 23 19 20 19 19 21 19 19 21 27 24 21 22 23 23 24 24 24 29
49 54 57 60 63 62 61 51 43 36 31 32 31 30 30 28 30 28 27 23 22 24 25 24 23 25 24 18 18 18 15 17 17 20 20 20 19 18 20 22 22 16 21 24
40 45 49 53 56 57 59 58 50 43 31 29 29 28 28 27 24 21 19 20 24 23 22 21 23 23 20 19 17 14 14 13 12 12 14 14 15 17 17 17 17 18 16 15
33 37 40 43 47 49 51 53 53 53 48 37 26 24 23 21 22 22 22 23 21 21 22 21 21 23 20 17 14 11 9 8 8 9 8 9 9 10 10 9 10 13 11 10
23 26 29 33 37 41 43 45 47 47 47 47 41 30 22 19 19 17 17 18 17 16 17 16 16 13 13 14 13 12 9 8 8 6 7 6 7 5 7 6 5 6 7 7
20 18 21 25 27 32 37 39 39 40 40 41 41 40 38 30 23 16 15 13 14 9 7 8 5 5 3 4 8 10 11 11 10 9 8 8 7 6 6 7 6 6 6 5
14 15 15 17 19 22 27 31 33 34 35 36 36 34 34 34 33 30 25 20 15 12 8 6 5 4 4 2 6 10 12 11 11 10 9 8 7 6 6 5 6 6 6 6
16 14 12 12 12 14 17 19 23 27 28 30 31 31 29 29 28 27 27 26 25 24 24 23 22 20 21 19 19 18 15 15 15 15 13 10 12 14 12 9 10 12 11 12
18 18 15 12 6 4 8 11 12 16 20 22 23 24 25 24 24 23 21 21 20 19 19 18 17 18 17 17 16 15 15 16 15 15 14 14 12 12 11 10 10 9 8 8
17 16 18 17 11 5 4 3 5 8 10 14 17 19 18 19 20 20 18 17 15 14 13 13 13 12 12 12 11 11 10 10 10 10 10 11 10 9 8 7 7 7 6 6
21 18 22 21 19 16 11 9 8 6 6 7 9 12 14 14 13 14 14 14 13 12 11 9 8 8 9 8 8 8 8 8 6 5 4 3 3 4 5 4 4 4 3 3
19 21 21 22 24 23 23 19 17 15 12 9 8 8 9 9 10 10 9 9 9 8 8 8 8 7 5 4 3 4 5 5 5 4 2 1 1 2 3 3 2 1 2 4
24 18 21 22 25 28 27 26 25 25 20 15 16 15 14 10 9 8 8 7 6 6 6 6 5 6 6 5 4 3 2 2 1 1 2 2 3 3 5 5 4 5 6 8
27 25 21 22 24 23 28 28 30 27 22 22 23 23 20 18 16 14 13 12 10 9 8 8 9 9 9 8 7 7 7 7 7 6 5 5 5 5 6 7 8 9 9 10
28 29 28 24 26 25 25 25 29 31 31 28 28 28 27 26 25 24 23 21 18 17 15 14 14 13 12 12 14 11 12 11 11 12 11 10 9 7 8 8 10 10 10 11
36 33 33 31 31 30 27 24 23 24 25 28 32 30 30 32 33 32 31 30 28 26 23 20 22 19 17 11 21 15 16 16 16 15 15 16 14 13 13 12 12 14 14 15
41 38 36 33 29 29 30 30 25 21 24 25 20 25 32 36 36 36 39 39 37 36 31 30 30 26 18 16 25 22 21 21 21 20 20 19 20 20 20 19 19 19 19 19
41 44 41 37 35 30 28 24 22 24 28 24 21 28 28 32 35 41 42 42 43 46 42 40 38 32 29 30 33 30 27 26 25 24 26 24 24 25 25 26 26 26 26 26
45 45 46 44 41 36 33 30 26 30 32 35 32 31 35 37 37 40 43 47 48 48 47 47 47 41 32 33 37 37 32 31 29 26 27 27 29 30 30 30 32 32 33 33
47 47 47 49 47 47 46 39 26 25 29 35 36 37 37 37 37 39 38 38 43 52 55 50 47 37 38 37 40 41 38 37 32 31 33 32 31 33 33 34 35 37 38 39
48 48 49 49 50 53 54 42 30 31 31 33 34 36 36 38 41 42 42 40 47 49 46 51 53 47 40 36 39 43 42 41 37 38 38 37 37 36 36 36 37 40 41 42
52 52 52 49 50 46 48 44 38 35 35 37 38 39 39 39 42 40 39 41 42 44 45 41 47 54 50 37 36 43 42 41 42 42 42 41 42 41 39 40 42 41 42 44
54 55 55 54 49 46 43 41 38 41 43 42 42 41 42 43 45 43 41 42 47 49 50 51 48 44 41 36 35 39 43 43 43 44 45 45 45 46 44 42 42 43 44 46
55 55 55 53 53 45 40 39 39 42 44 47 46 45 44 43 47 46 46 47 46 50 53 51 51 50 47 40 36 38 43 43 43 44 45 45 45 47 47 47 47 46 47 47
57 56 53 50 49 42 42 40 43 48 49 48 49 49 47 53 53 49 49 48 48 54 56 53 51 47 50 44 43 41 40 49 47 44 43 44 44 47 49 50 50 49 48 48
Wind_Direction
37 43 46 50 52 56 60 61 66 67 67 68 71 74 93 115 112 110 112 102 97 98 98 110 105 68 68 84 90 100 110 119 132 120 106 92 88 91 95 106 103 117 115 109
36 38 44 45 51 53 56 57 62 54 59 69 85 99 108 104 106 109 107 103 103 102 96 91 78 87 96 103 98 105 113 119 134 117 110 106 102 102 100 97 101 112 120 123
38 40 41 44 45 47 51 53 58 64 76 90 95 99 95 94 97 99 103 102 94 97 98 94 91 95 103 103 104 107 109 121 130 122 114 115 116 110 108 107 105 107 106 107
39 40 43 44 46 46 49 54 59 68 88 98 97 90 90 91 88 95 102 93 90 96 94 90 84 82 92 109 109 116 119 123 128 130 129 129 128 125 121 120 123 117 122 125
36 41 43 44 46 47 50 50 56 62 76 94 92 87 87 84 93 101 99 97 101 98 97 91 87 88 91 94 104 109 136 139 150 148 148 143 140 142 140 142 138 139 144 140
36 36 39 42 46 48 49 51 53 55 60 66 76 85 84 83 93 92 103 112 102 105 105 99 91 89 89 94 101 104 113 121 141 155 159 167 158 156 158 153 158 162 164 162
31 34 38 40 44 47 49 51 53 52 55 57 62 69 76 82 88 97 105 114 108 110 115 115 107 96 95 102 102 108 121 136 156 159 179 180 179 199 187 185 186 184 177 176
2 24 35 42 41 42 48 48 50 55 55 57 57 57 61 70 77 85 96 110 132 129 147 140 126 125 50 113 148 147 151 155 158 161 168 171 173 178 177 181 183 179 185 170
336 350 21 34 45 44 42 48 49 49 54 57 58 57 57 58 61 65 68 73 76 73 86 93 88 85 72 91 164 164 159 158 163 176 185 177 167 156 147 143 159 155 148 142
317 328 344 18 28 37 44 41 43 50 50 55 57 57 58 59 58 59 59 62 64 65 65 66 70 75 78 87 92 99 113 116 121 119 113 114 129 132 109 97 103 107 108 98
308 311 312 322 357 24 39 41 34 35 48 49 50 56 59 56 57 61 59 57 59 59 60 61 63 66 69 72 74 76 78 81 82 82 84 87 81 88 89 85 72 67 55 47
328 302 289 287 288 292 299 347 355 6 23 39 43 42 47 55 58 55 55 55 54 56 57 58 58 59 64 70 75 77 82 86 89 95 98 100 104 104 96 92 89 80 70 56
339 308 289 283 285 286 281 265 263 280 322 349 12 26 31 34 43 49 50 50 53 50 45 45 49 59 71 73 80 84 89 86 83 78 83 94 118 128 119 109 98 89 70 44
331 333 312 288 285 280 272 275 277 277 282 293 304 329 346 1 9 14 25 33 31 35 39 37 28 25 30 38 70 94 101 99 82 65 59 47 238 213 210 206 214 237 285 286
309 326 327 310 280 280 281 282 281 275 273 271 282 289 289 290 303 318 329 337 344 348 344 347 351 347 345 341 333 312 277 248 235 359 340 312 305 290 265 251 247 290 293 290
285 302 315 321 322 297 284 282 279 278 271 269 266 266 258 263 267 268 275 286 290 286 292 299 308 304 308 309 305 293 288 279 269 272 285 294 294 281 268 259 264 284 289 296
266 279 290 302 308 317 315 298 288 282 286 280 275 265 257 254 255 257 259 261 267 276 272 273 280 286 291 296 288 288 286 281 276 270 266 275 283 280 269 263 268 276 283 291
257 264 274 283 292 302 305 310 315 311 303 298 290 283 277 272 263 255 250 251 255 259 264 264 264 271 282 281 278 277 278 276 277 279 272 271 271 273 271 270 272 277 284 290
250 254 263 268 274 285 297 300 308 323 320 322 316 297 283 277 277 275 270 262 254 254 252 255 263 265 272 265 263 268 269 270 270 267 268 271 269 268 269 269 270 275 279 284
254 251 255 261 264 271 279 285 298 312 318 317 304 298 297 294 283 276 274 270 270 265 256 251 254 261 259 256 259 261 265 267 267 267 264 264 266 267 266 268 270 270 274 277
254 254 251 253 256 258 262 266 278 288 298 304 301 302 305 303 304 298 284 275 274 271 268 265 258 259 261 254 254 257 259 256 260 263 268 267 264 264 266 265 266 267 268 271
250 255 255 255 256 258 260 262 271 278 279 285 287 291 295 298 299 300 305 304 297 286 278 273 269 285 272 255 251 252 250 251 252 258 264 266 267 267 268 268 268 268 268 270
252 251 255 258 257 256 258 263 269 270 276 276 279 283 285 286 289 292 298 310 307 301 302 291 279 278 278 269 250 250 248 247 248 254 256 261 265 269 269 269 269 269 271 271
249 250 253 256 259 265 264 262 265 264 266 272 277 279 282 285 289 287 290 297 306 313 303 300 282 275 275 272 258 250 251 247 247 249 253 259 263 266 268 272 270 270 271 273
250 251 254 259 258 261 263 260 259 262 266 268 271 275 283 282 285 280 281 294 302 303 302 296 289 279 274 273 268 255 252 251 249 249 252 256 259 264 268 271 270 269 270 273
249 254 257 259 260 260 257 258 258 261 264 267 272 279 282 283 282 281 281 288 297 298 299 300 296 283 274 272 266 264 251 250 250 249 249 252 257 262 267 270 271 271 271 273
250 255 258 261 264 261 256 256 258 263 266 268 272 279 278 281 281 284 281 289 289 293 296 296 288 280 269 266 268 263 262 251 249 251 251 252 255 259 266 269 270 272 273 274